Regional Weather Roundup
Issued by NWS

Home | Current Version | Previous Version | Text Only | Print | Product List | Glossary Off
Versions: 1 2 3 4 5 6 7 8 9 10 11 12 13 14 15 16 17 18 19 20 21 22 23 24 25 26 27 28 29 30 31 32 33 34 35 36 37 38 39 40 41 42 43 44 45 46 47 48 49 50

365
ASUS45 KCYS 260610
RWRWY

WYOMING REGIONAL WEATHER ROUNDUP
NATIONAL WEATHER SERVICE CHEYENNE WY
1200 AM MDT WED APR 26 2017

NOTE:  "FAIR" INDICATES FEW OR NO CLOUDS BELOW 12,000 FEET
WITH NO SIGNIFICANT WEATHER AND/OR OBSTRUCTIONS TO VISIBILITY.

WYZ001-260700-
YELLOWSTONE NATIONAL PARK

CITY           SKY/WX    TMP DP  RH WIND       PRES   REMARKS
LK YELLOWSTONE   N/A     29  26  89 VRB3      29.87F
6HR MIN TEMP:  28; 6HR MAX TEMP:  38;

W YELLOWSTONE  NOT AVBL

$$
WYZ002>013-054>058-071-098>099-260700-
NORTHERN WYOMING

CITY           SKY/WX    TMP DP  RH WIND       PRES   REMARKS
JACKSON        CLOUDY    34  34 100 CALM      29.88F
CODY           FAIR      35  32  88 SE7       29.84F WCI  29
GREYBULL       CLOUDY    37  31  78 S6        29.84S WCI  32
6HR MIN TEMP:  37; 6HR MAX TEMP:  50;

WORLAND        FAIR      35  33  92 NE5       29.85S WCI  31
6HR MIN TEMP:  34; 6HR MAX TEMP:  50;

SHERIDAN       CLOUDY    32  29  88 SE3       29.87F
6HR MIN TEMP:  32; 6HR MAX TEMP:  34;

BUFFALO        NOT AVBL
GILLETTE       CLOUDY    27  27 100 W3        29.89F
6HR MIN TEMP:  26; 6HR MAX TEMP:  28; 6HR PCP: TRACE;

HULETT         CLOUDY    27  25  93 CALM      29.89F
NEWCASTLE      FAIR      28  21  74 N10       29.87S WCI  19

$$
WYZ014>020-022>026-101>103-260700-
CENTRAL WYOMING

CITY           SKY/WX    TMP DP  RH WIND       PRES   REMARKS
BIG PINEY      CLOUDY    33  30  88 W3        29.89F
6HR MIN TEMP:  31; 6HR MAX TEMP:  46;

PINEDALE       CLOUDY    32  32 100 N5        29.90S WCI  27
DUBOIS         FLURRIES  30  30 100 CALM      29.86S
LANDER         CLOUDY    34  27  75 CALM      29.84F
6HR MIN TEMP:  33; 6HR MAX TEMP:  45;

RIVERTON       FAIR      35  30  82 E3        29.85F
6HR MIN TEMP:  34; 6HR MAX TEMP:  44;

CASPER         FAIR      28  24  85 CALM      29.88F
6HR MIN TEMP:  28; 6HR MAX TEMP:  31; 6HR PCP: TRACE;

DOUGLAS        CLOUDY    31  26  82 NW10      29.89S WCI  22
6HR MIN TEMP:  30; 6HR MAX TEMP:  31; 6HR PCP: TRACE;


$$
WYZ021-027>030-104>119-260700-
SOUTHERN WYOMING

CITY           SKY/WX    TMP DP  RH WIND       PRES   REMARKS
EVANSTON       CLOUDY    32  29  88 SW9       29.94S WCI  24
6HR MIN TEMP:  32; 6HR MAX TEMP:  39;

KEMMERER         N/A     32  32 100 W5        29.93S WCI  27
FORT BRIDGER   FAIR      33  32  96 W13       29.95S WCI  24
ROCK SPRINGS   CLOUDY    34  30  85 SW8       29.89F WCI  27
6HR MIN TEMP:  32; 6HR MAX TEMP:  39;

DIXON            N/A     31  28  89 SW5       29.91R WCI  27
RAWLINS        MOCLDY    29  26  89 CALM      29.88S
6HR MIN TEMP:  28; 6HR MAX TEMP:  36;

SARATOGA       CLOUDY    30  27  86 SW6       29.88S WCI  24
LARAMIE        MOCLDY    27  23  85 NW10      29.83S WCI  17
6HR MIN TEMP:  26; 6HR MAX TEMP:  34;

CHEYENNE       CLOUDY    27  23  85 N9        29.83F WCI  18
6HR MIN TEMP:  27; 6HR MAX TEMP:  38;

TORRINGTON     CLOUDY    32  26  78 N7        29.86F WCI  26
6HR MIN TEMP:  30; 6HR MAX TEMP:  33; 6HR PCP: TRACE;

PINE BLUFFS    CLOUDY    30  28  93 NW10      29.86S WCI  21

$$




USA.gov is the U.S. government's official web portal to all federal, state and local government web resources and services.